Location: Houston
(29.7630°N, 95.3630°W)
Time: 08:05:09
(UTC-05:00)

ISS - All Passes

Search period start: 28 August 2014 00:00
Search period end: 07 September 2014 00:00
Orbit: 414 x 419 km, 51.6° (Epoch: 27 August)

Date Brightness Start Highest point End Pass type
(mag) Time Alt. Az. Time Alt. Az. Time Alt. Az.
28 Aug - 11:08:25 10° SW 11:11:42 65° SE 11:15:00 10° NE daylight
28 Aug - 12:47:44 10° NW 12:48:44 11° NNW 12:49:43 10° NNW daylight
28 Aug - 19:18:31 10° NNW 19:21:47 51° NE 19:25:02 10° ESE daylight
29 Aug - 10:20:23 10° SSW 10:23:19 30° SE 10:26:16 10° ENE daylight
29 Aug - 11:57:41 10° W 12:00:04 18° NW 12:02:27 10° N daylight
29 Aug - 18:30:21 10° NNW 18:33:14 27° NE 18:36:07 10° E daylight
29 Aug - 20:07:26 10° W 20:09:48 18° SW 20:12:11 10° S visible
30 Aug - 09:32:59 10° SSE 09:34:57 15° SE 09:36:56 10° E daylight
30 Aug - 11:08:26 10° WSW 11:11:26 32° NW 11:14:28 10° NNE daylight
30 Aug - 17:42:28 10° N 17:44:35 16° NE 17:46:41 10° ENE daylight
30 Aug - 19:18:18 10° WNW 19:21:24 37° SW 19:24:30 10° SSE daylight
31 Aug - 10:19:34 10° SW 10:22:51 65° NW 10:26:09 10° NE daylight
31 Aug - 18:29:34 10° NW 18:32:54 82° SW 18:36:13 10° SE daylight
01 Sep - 09:31:02 10° SSW 09:34:17 57° SE 09:37:33 10° NE daylight
01 Sep - 11:09:55 10° WNW 11:11:15 12° NW 11:12:35 10° N daylight
01 Sep - 17:41:04 10° NNW 17:44:17 46° NE 17:47:29 10° ESE daylight
01 Sep - 19:20:18 10° WSW 19:20:39 10° SW 19:20:59 10° SW daylight
02 Sep - 08:42:54 10° S 08:45:44 26° SE 08:48:35 10° ENE daylight
02 Sep - 10:19:55 10° W 10:22:25 20° NW 10:24:57 10° N daylight
02 Sep - 16:52:46 10° NNW 16:55:33 24° NE 16:58:20 10° E daylight
02 Sep - 18:29:37 10° WNW 18:32:09 20° SW 18:34:41 10° S daylight
03 Sep - 07:55:31 10° SSE 07:57:12 13° SE 07:58:53 10° E daylight
03 Sep - 09:30:33 10° WSW 09:33:38 35° NW 09:36:44 10° NNE daylight
03 Sep - 16:04:48 10° N 16:06:42 14° NE 16:08:37 10° ENE daylight
03 Sep - 17:40:24 10° WNW 17:43:34 42° SW 17:46:43 10° SSE daylight
04 Sep - 08:41:34 10° SW 08:44:53 74° NW 08:48:12 10° NE daylight
04 Sep - 16:51:33 10° NW 16:54:52 86° NE 16:58:11 10° SE daylight
05 Sep - 07:52:56 10° SSW 07:56:09 49° SE 07:59:22 10° NE daylight
05 Sep - 09:31:25 10° WNW 09:33:03 13° NW 09:34:42 10° N daylight
05 Sep - 16:02:55 10° NNW 16:06:04 40° NE 16:09:13 10° ESE daylight
05 Sep - 17:41:14 10° WSW 17:42:28 12° SW 17:43:41 10° SSW daylight
06 Sep - 07:04:44 10° S 07:07:26 23° SE 07:10:08 10° ENE daylight
06 Sep - 08:41:25 10° W 08:44:04 22° NW 08:46:44 10° NNE daylight
06 Sep - 15:14:30 10° NNW 15:17:09 22° NE 15:19:48 10° E daylight
06 Sep - 16:51:05 10° WNW 16:53:47 23° SW 16:56:29 10° S daylight
